EW5624 Weather Reports


time (UTC)temp
C
wind
direction
speed
KPH
gust
KPH
rain 1hr
cm
rain 24hr
cm
rain mn
cm
humidity
%
barometer
mb
20260504011504 16 274 4.8 9.7 0.00 0.00 0.00 33 1002.2
20260504010030 17 275 3.2 6.4 0.00 0.00 0.00 31 1002.4
20260504004514 17 285 4.8 8.0 0.00 0.00 0.00 30 1002.3
20260504003023 17 285 6.4 11.3 0.00 0.00 0.00 28 1002.4
20260504001508 18 290 8.0 19.3 0.00 0.00 0.00 26 1002.4
20260504000013 18 288 8.0 17.7 0.00 0.00 0.00 26 1002.4
20260503234554 19 246 16.1 27.4 0.00 0.00 0.00 26 1002.4
20260503233040 19 254 14.5 22.5 0.00 0.00 0.00 27 1002.3
20260503231534 20 292 12.9 24.1 0.00 0.00 0.00 25 1002.4
20260503230131 20 279 22.5 29.0 0.00 0.00 0.00 26 1002.4
20260503224512 20 268 11.3 24.1 0.00 0.00 0.00 28 1002.5
20260503223054 20 344 12.9 22.5 0.00 0.00 0.00 26 1002.5
20260503221553 20 275 11.3 27.4 0.00 0.00 0.00 30 1002.5
20260503220039 20 292 16.1 25.7 0.00 0.00 0.00 29 1002.5
20260503214518 20 269 17.7 32.2 0.00 0.00 0.00 30 1002.5
20260503213012 20 266 11.3 24.1 0.00 0.00 0.00 29 1002.6
20260503211504 20 293 12.9 27.4 0.00 0.00 0.00 25 1002.7
20260503210005 20 348 11.3 32.2 0.00 0.00 0.00 25 1002.7
20260503204552 20 302 8.0 25.7 0.00 0.00 0.00 25 1002.8
20260503203037 20 278 19.3 35.4 0.00 0.00 0.00 25 1003.1
20260503201605 20 323 9.7 24.1 0.00 0.00 0.00 28 1003.2
20260503200126 20 290 11.3 30.6 0.00 0.00 0.00 26 1003.5
20260503194523 20 309 14.5 30.6 0.00 0.00 0.00 35 1003.5
20260503193159 20 289 11.3 30.6 0.00 0.00 0.00 36 1003.5
20260503191527 20 291 16.1 33.8 0.00 0.00 0.00 39 1003.4
20260503190049 20 271 20.9 33.8 0.00 0.00 0.00 39 1003.4
20260503184540 20 316 12.9 25.7 0.00 0.00 0.00 38 1003.6
20260503183005 19 296 11.3 30.6 0.00 0.00 0.00 39 1003.6
20260503181524 19 273 17.7 33.8 0.00 0.00 0.00 37 1003.8
20260503180118 19 337 11.3 25.7 0.00 0.00 0.00 38 1003.8
20260503174554 18 298 14.5 27.4 0.00 0.00 0.00 39 1003.8
20260503173042 18 276 12.9 27.4 0.00 0.00 0.00 42 1004.0
20260503171536 18 256 11.3 32.2 0.00 0.00 0.00 43 1004.1
20260503130135 12 223 8.0 16.1 0.00 0.00 0.00 55 1004.1
20260503120138 11 216 4.8 12.9 0.00 0.00 0.00 59 1003.8
20260503081611 10 207 1.6 6.4 0.00 0.00 0.00 59 1005.1
20260503071535 11 189 1.6 9.7 0.00 0.00 0.00 62 1006.3
20260503060104 11 200 0.0 0.0 0.00 0.00 0.00 61 1007.4
20260503054538 11 200 0.0 0.0 0.00 0.00 0.00 59 1007.6
20260503053022 11 200 0.0 0.0 0.00 0.00 0.00 58 1007.6
20260503051512 12 200 0.0 6.4 0.00 0.00 0.00 58 1007.8
20260503050017 12 195 1.6 11.3 0.00 0.00 0.00 59 1007.9
20260503044507 12 238 0.0 4.8 0.00 0.00 0.00 57 1008.4
20260503043104 12 238 0.0 6.4 0.00 0.00 0.00 56 1008.4
20260503041655 12 238 1.6 4.8 0.00 0.00 0.00 55 1008.7
20260503040038 13 238 1.6 6.4 0.00 0.00 0.00 53 1008.8
20260503034532 13 239 3.2 11.3 0.00 0.00 0.00 51 1009.1
20260503033016 13 241 6.4 16.1 0.00 0.00 0.00 50 1009.4
20260503031505 13 219 6.4 14.5 0.00 0.00 0.00 49 1009.6
20260503030059 13 220 6.4 12.9 0.00 0.00 0.00 49 1009.8
20260503024554 14 223 4.8 14.5 0.00 0.00 0.00 48 1009.9
20260503023043 14 214 6.4 14.5 0.00 0.00 0.00 49 1010.0
20260503021552 13 221 9.7 17.7 0.00 0.00 0.00 49 1010.2
20260503020125 14 236 4.8 20.9 0.00 0.00 0.00 47 1010.2
20260503014543 14 241 17.7 32.2 0.00 0.00 0.00 49 1010.5
20260503013003 13 237 3.2 8.0 0.00 0.00 0.00 52 1010.1